This is the latest recevied weather packets stored in our database for station/object KD2FKI. If no packets are shown the sender has not sent any weather packets the latest 10 day(s).
| Time | Temp. | Humidity | Pressure | Rain* | Wind** | Luminosity | Snow |
|---|---|---|---|---|---|---|---|
| 1777762243 | 13.89° C | 45% | - | 0 mm | - | - | - |
| 1777761633 | 13.89° C | 46% | - | 0 mm | - | - | - |
| 1777761041 | 13.89° C | 46% | - | 0 mm | - | - | - |
| 1777760429 | 14.44° C | 47% | - | 0 mm | - | - | - |
| 1777759838 | 14.44° C | 45% | - | 0 mm | - | - | - |
| 1777759250 | 15° C | 43% | - | 0 mm | - | - | - |
| 1777758635 | 15° C | 42% | - | 0 mm | - | - | - |
| 1777758045 | 15.56° C | 42% | - | 0 mm | - | - | - |
| 1777757435 | 15.56° C | 43% | - | 0 mm | - | - | - |
| 1777756840 | 16.11° C | 42% | - | 0 mm | - | - | - |
| 1777756230 | 15.56° C | 42% | - | 0 mm | - | - | - |
| 1777755637 | 15° C | 43% | - | 0 mm | - | - | - |
| 1777755045 | 15.56° C | 45% | - | 0 mm | - | - | - |
| 1777754471 | 15° C | 44% | - | 0 mm | - | - | - |
| 1777753861 | 15° C | 43% | - | 0 mm | - | - | - |
| 1777753232 | 15.56° C | 43% | - | 0 mm | - | - | - |
| 1777752640 | 15.56° C | 42% | - | 0 mm | - | - | - |
| 1777752049 | 14.44° C | 43% | - | 0 mm | - | - | - |
| 1777751437 | 15.56° C | 40% | - | 0 mm | - | - | - |
| 1777750852 | 16.67° C | 39% | - | 0 mm | - | - | - |
| 1777750234 | 16.11° C | 41% | - | 0 mm | - | - | - |
| 1777749646 | 16.67° C | 41% | - | 0 mm | - | - | - |
| 1777749033 | 15.56° C | 40% | - | 0 mm | - | - | - |
| 1777748441 | 17.22° C | 40% | - | 0 mm | - | - | - |
| 1777747851 | 16.67° C | 39% | - | 0 mm | - | - | - |
* Rain latest hour (hover to see other rain measurements)
** Current wind speed in m/s (hover to see current wind gust speed)